This is the latest recevied weather packets stored in our database for station/object KA9CBS. If no packets are shown the sender has not sent any weather packets the latest 10 day(s).
| Time | Temp. | Humidity | Pressure | Rain* | Wind** | Luminosity | Snow |
|---|---|---|---|---|---|---|---|
| 1778146817 | 5° C | 91% | 1018.6 hPa | 0 mm | - | 0 W/m² | - |
| 1778146514 | 5° C | 91% | 1018.6 hPa | 0 mm | - | 0 W/m² | - |
| 1778146213 | 5° C | 90% | 1018.9 hPa | 0 mm | - | 0 W/m² | - |
| 1778145909 | 5° C | 89% | 1019 hPa | 0 mm | - | 0 W/m² | - |
| 1778145606 | 5.56° C | 87% | 1018.9 hPa | 0 mm | - | 0 W/m² | - |
| 1778145302 | 5.56° C | 86% | 1018.7 hPa | 0 mm | - | 0 W/m² | - |
| 1778144998 | 5.56° C | 86% | 1018.7 hPa | 0 mm | - | 0 W/m² | - |
| 1778144694 | 6.11° C | 85% | 1018.8 hPa | 0 mm | - | 0 W/m² | - |
| 1778144391 | 6.11° C | 84% | 1019 hPa | 0 mm | - | 0 W/m² | - |
| 1778144088 | 6.11° C | 83% | 1019 hPa | 0 mm | - | 0 W/m² | - |
| 1778143785 | 6.11° C | 83% | 1018.6 hPa | 0 mm | - | 0 W/m² | - |
| 1778143482 | 6.67° C | 82% | 1018.6 hPa | 0 mm | - | 0 W/m² | - |
| 1778143179 | 6.67° C | 81% | 1018.4 hPa | 0 mm | - | 0 W/m² | - |
| 1778142875 | 6.67° C | 81% | 1018.6 hPa | 0 mm | - | 0 W/m² | - |
| 1778142571 | 7.22° C | 81% | 1018.5 hPa | 0 mm | - | 0 W/m² | - |
| 1778142268 | 7.22° C | 81% | 1018.3 hPa | 0 mm | - | 0 W/m² | - |
| 1778141964 | 7.22° C | 81% | 1018.4 hPa | 0 mm | - | 0 W/m² | - |
| 1778141661 | 7.22° C | 81% | 1018.4 hPa | 0 mm | - | 0 W/m² | - |
| 1778141357 | 7.22° C | 81% | 1018.4 hPa | 0 mm | - | 0 W/m² | - |
| 1778141054 | 7.22° C | 81% | 1018.4 hPa | 0 mm | - | 0 W/m² | - |
| 1778140749 | 7.22° C | 81% | 1018.3 hPa | 0 mm | - | 0 W/m² | - |
| 1778140445 | 7.22° C | 81% | 1018.2 hPa | 0 mm | - | 0 W/m² | - |
| 1778140142 | 7.78° C | 81% | 1018.3 hPa | 0 mm | - | 0 W/m² | - |
| 1778139839 | 7.22° C | 81% | 1018.3 hPa | 0 mm | - | 0 W/m² | - |
| 1778139536 | 7.22° C | 84% | 1018.2 hPa | 0 mm | - | 0 W/m² | - |
* Rain latest hour (hover to see other rain measurements)
** Current wind speed in m/s (hover to see current wind gust speed)